User: anonymous
Location: Okie-Tex Star Party
(36.8978°N, 102.9520°W)
Time: 08:08:31
(UTC-05:00)
Language:

Hamsat - Orbit

View from above orbital plane
View from above orbital plane
View from above satellite
View from above satellite

Ground track
Ground track

The orbit data is extracted from the following two-line orbital elements,

1 28650U 05017B   14210.45358406  .00001459  00000-0  17360-3 0  8030
2 28650 097.5612 213.3098 0025202 022.4612 337.7701 14.85605192499503
Epoch (UTC): 29 July 2014 10:53:09
Eccentricity: 0.0025202
inclination: 97.5612°
perigee height: 594 km
apogee height: 629 km
right ascension of ascending node: 213.3098°
argument of perigee: 22.4612°
revolutions per day: 14.85605192
mean anomaly at epoch: 337.7701°
orbit number at epoch: 49950

The dashed part of the orbit path shows where the satellite is in the earth's shadow,  

DLR